When you browse on this site, cookies collect data to enhance your experience and personalize the content and advertising you see.
Visit our Privacy Policy to learn more. By continuing to use the site, you agree to this use of cookies and data.
  • In Germany
  • List of Countries
  • For 7 days
  • Water Temperature
  • Satellite Maps
  • Weather Map
  • Weather Widgets
  • user-avatar
    Login

    Hourly Weather Bryski

    Today, 25 April, Thursday

    Time Temperature Precipitation Wind Pressure Humidity
    00:00 +13°C° 0 mm 5 mps 751 mmHg 76%
    01:00 +13°C° 0 mm 5 mps 751 mmHg 79%
    02:00 +13°C° 0 mm 5 mps 751 mmHg 80%
    03:00 +12°C° 0 mm 5 mps 750 mmHg 81%
    04:00 +12°C° 0 mm 5 mps 750 mmHg 82%
    05:00 +13°C° 0 mm 5 mps 750 mmHg 80%
    06:00 +14°C° 0 mm 5 mps 750 mmHg 79%
    07:00 +14°C° 0 mm 5 mps 750 mmHg 78%
    08:00 +16°C° 0 mm 5 mps 750 mmHg 73%
    09:00 +19°C° 0 mm 5 mps 750 mmHg 67%
    10:00 +21°C° 0 mm 5 mps 750 mmHg 62%
    11:00 +22°C° 0 mm 5 mps 750 mmHg 59%
    12:00 +22°C° 0 mm 5 mps 750 mmHg 56%
    13:00 +23°C° 0 mm 4 mps 750 mmHg 53%
    14:00 +23°C° 0.1 mm 4 mps 749 mmHg 53%
    15:00 +23°C° 0.1 mm 4 mps 749 mmHg 54%
    16:00 +23°C° 0.1 mm 4 mps 749 mmHg 55%
    17:00 +21°C° 0 mm 3 mps 749 mmHg 61%
    18:00 +20°C° 0 mm 2 mps 749 mmHg 68%
    19:00 +19°C° 0 mm 1 mps 749 mmHg 74%
    20:00 +18°C° 0 mm 1 mps 749 mmHg 76%
    21:00 +18°C° 0 mm 1 mps 749 mmHg 79%
    22:00 +16°C° 0 mm 2 mps 749 mmHg 81%
    23:00 +15°C° 0 mm 2 mps 749 mmHg 83%

    Tomorrow, 26 April, Friday

    Time Temperature Precipitation Wind Pressure Humidity
    00:00 +15°C° 0 mm 2 mps 749 mmHg 86%
    01:00 +15°C° 0 mm 2 mps 749 mmHg 88%
    02:00 +14°C° 0 mm 2 mps 749 mmHg 89%
    03:00 +14°C° 0 mm 2 mps 748 mmHg 90%
    04:00 +14°C° 0 mm 2 mps 748 mmHg 91%
    05:00 +14°C° 0 mm 3 mps 748 mmHg 86%
    06:00 +16°C° 0 mm 3 mps 748 mmHg 82%
    07:00 +17°C° 0 mm 3 mps 747 mmHg 77%
    08:00 +19°C° 0 mm 4 mps 747 mmHg 70%
    09:00 +21°C° 0 mm 4 mps 747 mmHg 64%
    10:00 +23°C° 0 mm 4 mps 747 mmHg 57%
    11:00 +25°C° 0 mm 5 mps 746 mmHg 54%
    12:00 +25°C° 0 mm 5 mps 746 mmHg 51%
    13:00 +26°C° 0 mm 5 mps 745 mmHg 48%
    14:00 +26°C° 0 mm 5 mps 745 mmHg 48%
    15:00 +26°C° 0 mm 4 mps 745 mmHg 48%
    16:00 +26°C° 0 mm 4 mps 744 mmHg 49%
    17:00 +24°C° 0 mm 3 mps 744 mmHg 53%
    18:00 +21°C° 0 mm 2 mps 744 mmHg 58%
    19:00 +20°C° 0 mm 2 mps 744 mmHg 63%
    20:00 +19°C° 0 mm 2 mps 744 mmHg 65%
    21:00 +18°C° 0 mm 2 mps 744 mmHg 66%
    22:00 +17°C° 0 mm 2 mps 743 mmHg 67%
    23:00 +17°C° 0 mm 2 mps 743 mmHg 70%

    Day after tomorrow, 27 April, Saturday

    Time Temperature Precipitation Wind Pressure Humidity
    00:00 +17°C° 0 mm 2 mps 743 mmHg 72%
    01:00 +16°C° 0 mm 2 mps 743 mmHg 74%
    02:00 +16°C° 0 mm 2 mps 743 mmHg 75%
    03:00 +15°C° 0 mm 2 mps 743 mmHg 77%
    04:00 +15°C° 0 mm 2 mps 743 mmHg 79%
    05:00 +16°C° 0 mm 3 mps 744 mmHg 80%
    06:00 +15°C° 0 mm 5 mps 744 mmHg 81%
    07:00 +16°C° 0 mm 6 mps 744 mmHg 82%
    08:00 +16°C° 0 mm 6 mps 745 mmHg 82%
    09:00 +15°C° 0 mm 6 mps 745 mmHg 82%
    10:00 +15°C° 0 mm 7 mps 745 mmHg 82%
    11:00 +15°C° 0 mm 6 mps 746 mmHg 81%
    12:00 +15°C° 0 mm 6 mps 746 mmHg 79%
    13:00 +15°C° 0 mm 6 mps 746 mmHg 77%
    14:00 +14°C° 0 mm 6 mps 746 mmHg 77%
    15:00 +14°C° 0 mm 5 mps 746 mmHg 76%
    16:00 +14°C° 0 mm 5 mps 747 mmHg 75%
    17:00 +13°C° 0 mm 5 mps 747 mmHg 76%
    18:00 +13°C° 0 mm 4 mps 747 mmHg 77%
    19:00 +12°C° 0 mm 3 mps 748 mmHg 78%
    20:00 +11°C° 0 mm 3 mps 748 mmHg 79%
    21:00 +11°C° 0 mm 3 mps 748 mmHg 81%
    22:00 +10°C° 0 mm 3 mps 749 mmHg 82%
    23:00 +9°C° 0 mm 3 mps 749 mmHg 84%

    28 April, Sunday

    Time Temperature Precipitation Wind Pressure Humidity
    00:00 +9°C° 0 mm 3 mps 749 mmHg 86%
    01:00 +8°C° 0 mm 3 mps 749 mmHg 89%
    02:00 +8°C° 0 mm 3 mps 749 mmHg 88%
    03:00 +7°C° 0 mm 3 mps 749 mmHg 87%
    04:00 +7°C° 0 mm 3 mps 749 mmHg 85%
    05:00 +8°C° 0 mm 3 mps 749 mmHg 84%
    06:00 +9°C° 0 mm 3 mps 750 mmHg 83%
    07:00 +8°C° 0 mm 4 mps 750 mmHg 82%
    08:00 +10°C° 0 mm 4 mps 750 mmHg 79%
    09:00 +11°C° 0 mm 4 mps 750 mmHg 77%
    10:00 +12°C° 0 mm 4 mps 750 mmHg 75%
    11:00 +13°C° 0 mm 4 mps 750 mmHg 73%
    12:00 +14°C° 0 mm 4 mps 750 mmHg 70%
    13:00 +15°C° 0 mm 4 mps 750 mmHg 68%
    14:00 +15°C° 0 mm 4 mps 750 mmHg 69%
    15:00 +15°C° 0 mm 4 mps 750 mmHg 69%
    16:00 +15°C° 0 mm 4 mps 750 mmHg 70%
    17:00 +15°C° 0 mm 4 mps 750 mmHg 74%
    18:00 +14°C° 0 mm 4 mps 750 mmHg 78%
    19:00 +13°C° 0 mm 4 mps 751 mmHg 82%
    20:00 +12°C° 0 mm 4 mps 751 mmHg 85%
    21:00 +12°C° 0 mm 4 mps 751 mmHg 88%
    22:00 +11°C° 0 mm 4 mps 751 mmHg 91%
    23:00 +12°C° 0 mm 4 mps 751 mmHg 88%

    29 April, Monday

    Time Temperature Precipitation Wind Pressure Humidity
    00:00 +13°C° 0 mm 4 mps 751 mmHg 86%
    01:00 +14°C° 0 mm 5 mps 751 mmHg 83%
    02:00 +13°C° 0 mm 5 mps 751 mmHg 83%
    03:00 +12°C° 0 mm 5 mps 751 mmHg 82%
    04:00 +10°C° 0 mm 6 mps 752 mmHg 82%
    05:00 +10°C° 0 mm 6 mps 752 mmHg 79%
    06:00 +11°C° 0 mm 7 mps 752 mmHg 75%
    07:00 +11°C° 0 mm 7 mps 752 mmHg 72%
    08:00 +12°C° 0 mm 8 mps 753 mmHg 64%
    09:00 +13°C° 0 mm 8 mps 753 mmHg 57%
    10:00 +15°C° 0 mm 8 mps 753 mmHg 49%
    11:00 +16°C° 0 mm 8 mps 753 mmHg 47%
    12:00 +16°C° 0 mm 8 mps 753 mmHg 45%
    13:00 +17°C° 0 mm 7 mps 753 mmHg 43%
    14:00 +16°C° 0 mm 7 mps 753 mmHg 44%
    15:00 +16°C° 0 mm 7 mps 753 mmHg 45%
    16:00 +16°C° 0 mm 7 mps 753 mmHg 45%
    17:00 +14°C° 0 mm 6 mps 754 mmHg 49%
    18:00 +13°C° 0 mm 5 mps 754 mmHg 53%
    19:00 +10°C° 0 mm 5 mps 754 mmHg 57%
    20:00 +9°C° 0 mm 5 mps 755 mmHg 58%
    21:00 +8°C° 0 mm 5 mps 755 mmHg 58%
    22:00 +8°C° 0 mm 5 mps 755 mmHg 59%
    23:00 +7°C° 0 mm 5 mps 755 mmHg 60%

    30 April, Tuesday

    Time Temperature Precipitation Wind Pressure Humidity
    00:00 +6°C° 0 mm 5 mps 756 mmHg 61%
    01:00 +6°C° 0 mm 5 mps 756 mmHg 62%
    02:00 +5°C° 0 mm 5 mps 756 mmHg 64%
    03:00 +5°C° 0 mm 5 mps 756 mmHg 65%
    04:00 +3°C° 0 mm 5 mps 756 mmHg 66%
    05:00 +5°C° 0 mm 5 mps 756 mmHg 64%
    06:00 +6°C° 0 mm 5 mps 756 mmHg 62%
    07:00 +7°C° 0 mm 6 mps 757 mmHg 60%
    08:00 +8°C° 0 mm 6 mps 757 mmHg 55%
    09:00 +10°C° 0 mm 6 mps 756 mmHg 51%
    10:00 +11°C° 0 mm 6 mps 756 mmHg 46%
    11:00 +13°C° 0 mm 6 mps 756 mmHg 44%
    12:00 +13°C° 0 mm 6 mps 756 mmHg 41%
    13:00 +14°C° 0 mm 7 mps 755 mmHg 39%
    14:00 +14°C° 0 mm 6 mps 755 mmHg 40%
    15:00 +14°C° 0 mm 6 mps 755 mmHg 40%
    16:00 +14°C° 0 mm 6 mps 755 mmHg 41%
    17:00 +12°C° 0 mm 5 mps 755 mmHg 47%
    18:00 +11°C° 0 mm 4 mps 755 mmHg 53%
    19:00 +9°C° 0 mm 3 mps 755 mmHg 59%
    20:00 +8°C° 0 mm 3 mps 755 mmHg 61%
    21:00 +7°C° 0 mm 3 mps 755 mmHg 63%
    22:00 +7°C° 0 mm 3 mps 755 mmHg 65%
    23:00 +5°C° 0 mm 3 mps 755 mmHg 68%
    Show more